STARLINK-32187

decayed
NORAD ID: 60337 Int'l Des: 2024-136 Owner: SPXS Country: US Constellation: starlink
LEOCIRCULAR
グループ

STARLINK-32187について

説明を読み込み中...

高度履歴

Altitude vs Time

uPlot chart will show altitude changes over time

軌道要素

1 60337U 24136J 24269.17904794 .04247004 12144-4 84954-3 0 9999
2 60337 53.1356 9.1664 0010681 345.3007 93.1598 16.30510420 9701
Epoch: Sep 25, 2024 • Age: 8609 hours

現在のステータス

Position data unavailable
打ち上げ日 Aug 2, 2024
運用期間 1.1 years
落下予定日 Sep 25, 2024
タイプ internet

技術仕様

分類 Payload
質量 730.00 kg
乾燥質量 700.00 kg
総質量 730.00 kg
長さ 0.30 m
直径 4.10 m
スパン 29.00 m
形状 Box + pan
製造者 SPXS
バスタイプ Starlink V2M
フェーズステータス Unknown Transfer Status
所有者/国 SPXS/US

大規模コンステレーション

Loading constellations...